Location: Lapalud
(44.3045°N, 4.6895°E)
Time: 07:22:20
(UTC+00:00)

Daily predictions for brighter satellites

Satellite Brightness Start Highest point End
(mag) Time Altitude Azimuth Time Altitude Azimuth Time Altitude Azimuth
COSMOS 2455 4.4 16:28:03 10° NW 16:33:41 42° WSW 16:39:17 10° S
Cosmos 1500 Rocket 3.7 16:29:32 10° N 16:33:51 52° ENE 16:38:09 10° SSE
Meteor 2-2 Rocket 4.4 16:28:28 10° S 16:34:23 67° E 16:40:14 10° NNE
YAOGAN 6 2.8 16:31:22 10° SSE 16:34:56 52° ENE 16:38:29 10° N
CZ-4C R/B 3.0 16:35:58 10° NNE 16:39:36 79° E 16:43:13 10° S
NOSS 2-1 (C) 4.4 16:34:29 10° NNW 16:39:36 73° NE 16:46:53 10° SE
Cosmos 405 Rocket 2.8 16:38:13 10° N 16:42:03 55° ENE 16:45:57 10° SSE
ADEOS Rocket 3.7 16:37:06 10° NNE 16:44:47 87° WNW 16:52:35 10° SSW
NOSS 2-1 (D) 4.4 16:39:55 10° NW 16:45:06 80° NE 16:52:26 10° SE
Cosmos 405 3.2 16:41:51 10° SSW 16:45:19 73° W 16:48:48 10° N
Cosmos 389 Rocket 3.9 16:43:33 10° SE 16:46:04 19° E 16:48:34 10° NE
Cosmos 372 Rocket 4.3 16:41:09 10° NNW 16:46:18 74° WSW 16:51:27 10° SSE
Cosmos 1943 Rocket 3.8 16:43:57 10° N 16:46:51 14° NE 16:49:45 10° ENE
H-2A R/B 2.6 16:45:47 10° SSE 16:50:09 85° WSW 16:54:24 10° NNW
BREEZE-M DEB (TANK) 1.8 16:48:47 10° WSW 16:51:10 60° NNW 16:53:03 12° ENE
SL-16 R/B 3.5 16:48:54 10° SE 16:52:54 20° E 16:56:52 10° NE
NOAA 6 4.3 16:49:34 10° S 16:54:43 76° WSW 16:59:53 10° NNW
USA 215 3.5 16:48:21 10° ENE 16:54:46 55° SE 17:01:09 10° SSW
CZ-2C R/B 4.4 16:52:32 10° E 16:55:39 17° ENE 16:58:42 10° NNE
Cosmos 1743 Rocket 3.6 16:51:42 10° N 16:56:12 88° W 17:00:39 10° S
COSMO-SKYMED 1 3.9 16:53:15 10° NE 16:56:32 21° E 16:59:48 10° SE
Okean-O 4.2 16:54:28 10° E 16:56:57 15° ENE 16:59:25 10° NNE
ATLAS 5 CENTAUR R/B 4.3 16:52:04 10° NW 16:57:24 35° WSW 17:03:25 10° S
PAYLOAD B 4.5 16:52:00 10° SSE 16:57:36 79° WSW 17:03:13 10° NNW
Cosmos 2298 Rocket 4.0 16:52:36 10° NNW 16:57:56 86° ENE 17:03:15 10° SSE
Cosmos 2150 Rocket 3.9 16:54:09 10° NNW 16:59:21 82° ENE 17:04:29 10° SSE
Cosmos 1818 3.5 16:55:10 10° NNW 17:00:39 71° NE 17:06:05 10° SE
AQUARIUS 4.1 16:56:23 10° SSE 17:00:49 67° ENE 17:05:18 10° N
Cosmos 1606 3.3 17:00:01 10° SSE 17:03:37 37° E 17:07:13 10° NNE
Sich 1 3.4 17:01:07 10° N 17:05:20 42° ENE 17:09:28 10° SSE
BREEZE-M TANK 3.5 16:59:38 10° WNW 17:06:04 54° SSW 17:09:18 10° SE
Okean O Rocket 1.5 17:03:30 10° SSE 17:07:49 80° ENE 17:12:13 10° N
Cosmos 2333 Rocket 3.5 17:03:07 10° WSW 17:08:22 37° NW 17:13:38 10° NNE
Helios 1A Rocket 4.3 17:07:32 13° E 17:09:30 17° ENE 17:12:08 10° NNE
Radarsat Rocket 4.4 17:04:32 10° S 17:10:26 71° WSW 17:16:57 10° NNW
Nadezhda 1 Rocket 4.1 17:04:46 10° S 17:11:06 88° W 17:17:33 10° N
ISS -3.7 17:07:52 10° WSW 17:11:14 77° NNW 17:13:33 19° NE
COSMOS 2428 3.8 17:08:23 10° SW 17:13:49 43° WNW 17:19:17 10° NNE
Cosmos 1125 Rocket 3.4 17:08:56 10° NNW 17:14:10 77° ENE 17:19:22 10° SSE
Cosmos 1356 3.8 17:11:48 10° N 17:15:03 38° ENE 17:18:16 10° SE
Feng Yun 1-1 Rocket 4.5 17:10:09 10° SE 17:15:44 50° ENE 17:21:13 10° N
Cosmos 1805 Rocket 3.5 17:11:50 10° N 17:16:19 76° E 17:20:44 10° SSE
CZ-4B R/B 1.2 17:17:16 11° NNE 17:20:08 55° E 17:23:10 10° S
Cosmos 1151 Rocket 3.9 17:17:14 10° SSE 17:20:54 28° E 17:23:24 16° NE
Cosmos 2278 Rocket 2.6 17:15:41 10° NNW 17:21:21 69° WSW 17:26:58 10° SSE
Cosmos 1666 Rocket 3.9 17:18:18 10° N 17:22:29 41° ENE 17:26:40 10° SSE
IRS-1C Rocket 4.3 17:20:11 10° SE 17:25:11 46° ENE 17:30:13 10° N
Cosmos 2154 Rocket 4.4 17:19:21 10° NNW 17:25:39 71° W 17:31:57 10° S
Cosmos 1328 Rocket 4.3 17:23:06 10° SSE 17:26:48 29° E 17:28:37 21° NE
USA 267 3.5 17:21:44 13° E 17:27:22 53° NNE 17:33:40 10° NW
Lacrosse 5 rocket 2.5 17:24:50 10° S 17:27:36 20° SE 17:28:08 20° ESE
Cosmos 962 Rocket 4.4 17:22:00 10° N 17:28:20 76° E 17:34:32 10° SSE
ERS-2 2.0 17:29:49 10° NNE 17:33:30 75° ESE 17:37:09 10° S
NOSS 0 Rocket 4.4 17:27:30 10° SW 17:33:40 61° WNW 17:39:52 10° NNE
Cosmos 2341 Rocket 3.9 17:28:22 10° N 17:34:40 76° E 17:40:59 10° SSE
CZ-2D R/B 3.6 17:31:16 10° SE 17:34:49 40° ENE 17:38:26 10° N
SAR-Lupe-1 4.4 17:33:32 26° NE 17:35:04 42° E 17:38:28 10° S
SL-24 R/B 4.2 17:32:45 19° NE 17:35:11 39° E 17:38:43 10° SSE
Meteor 1-25 Rocket 4.3 17:29:53 10° N 17:35:20 50° ENE 17:40:49 10° SSE
CZ-4 R/B 2.0 17:38:23 31° ENE 17:38:23 31° ENE 17:41:40 10° N
Cosmos 2219 Rocket 4.1 17:34:58 10° WSW 17:39:35 25° NW 17:44:13 10° N
TELKOM 3 3.1 17:38:46 10° WSW 17:41:27 64° NNW 17:41:32 63° N
SMAP 4.4 17:37:16 10° S 17:41:40 42° W 17:46:06 10° NNW
H-2A R/B 3.8 17:38:01 10° N 17:41:43 32° WNW 17:45:27 10° SW
CZ-3B R/B 3.3 17:40:37 10° S 17:42:21 15° SSE 17:42:21 15° SSE
CZ-4B R/B 4.3 17:37:46 10° S 17:42:53 45° W 17:47:59 10° NNW
BREEZE-M DEB (TANK) 1.4 17:40:47 10° WSW 17:43:13 78° NW 17:43:13 78° NW
SKYMED 2 3.5 17:40:45 11° NNE 17:44:52 66° E 17:49:11 10° S
USA 81 4.0 17:41:02 10° N 17:46:18 64° E 17:51:31 10° SSE
CREW DRAGON DEMO-1 DEB 3.6 17:45:14 10° NW 17:47:43 37° N 17:47:43 37° N
Cosmos 2237 Rocket 2.8 17:43:08 10° SW 17:48:38 56° WNW 17:54:11 10° NNE
Cosmos 2285 Rocket 4.1 17:43:18 10° NNW 17:49:37 56° ENE 17:55:50 10° SE
Cosmos 1939 Rocket 2.7 17:46:37 10° SSE 17:50:28 90° WSW 17:54:22 10° NNW
Cosmos 1633 Rocket 2.9 17:48:51 10° N 17:53:15 73° E 17:57:35 10° SSE
H-2A R/B 2.6 17:52:26 32° E 17:53:37 36° ENE 17:58:21 10° N
Cosmos 773 Rocket 4.2 17:52:41 10° S 17:57:42 48° ESE 17:59:15 37° ENE
SL-8 Rocket 3.9 17:52:34 10° N 17:58:50 87° E 18:05:07 10° S
Cosmos 864 Rocket 4.4 17:52:32 10° N 17:58:52 69° E 18:05:06 10° SSE
CSL-04 Rocket 4.1 18:01:44 37° ENE 18:01:44 37° ENE 18:06:19 10° N
USA 281 3.1 17:55:00 10° SE 18:01:30 72° ENE 18:08:04 10° NNW
Cosmos 2369 Rocket 3.1 17:57:58 10° N 18:02:10 29° NE 18:02:10 29° NE
Cosmos 783 Rocket 4.4 17:58:56 10° SSW 18:04:13 78° ESE 18:07:10 27° NNE
Cosmos 2181 Rocket 4.0 17:57:48 10° S 18:04:15 90° WNW 18:10:41 10° N
MOS 1 Rocket 3.7 18:03:47 29° NE 18:06:18 53° E 18:11:36 10° S
Abrixas rocket 4.3 18:05:44 10° W 18:07:42 18° SW 18:08:24 17° SSW
Cosmos 1959 Rocket 4.4 18:01:32 10° N 18:07:56 84° E 18:14:18 10° S
Cosmos 1821 Rocket 4.5 18:06:43 10° N 18:11:29 37° NE 18:11:29 37° NE
YAOGAN 1 2.5 18:21:23 71° NNE 18:21:23 71° NNE 18:25:19 10° N
Cosmos 1689 Rocket 4.3 18:25:21 23° SW 18:25:21 23° SW 18:26:40 10° SSW
SL-08 R/B 4.3 18:21:25 10° N 18:27:35 74° E 18:33:41 10° SSE
Cosmos 2297 3.8 18:22:54 10° NNW 18:28:35 74° WSW 18:34:09 11° SSE
Cosmos 1470 Rocket 4.1 18:24:18 10° N 18:35:05 - S 18:27:22 45° NNW
Cosmos 1943 Rocket 2.0 18:26:05 10° NNW 18:31:37 71° ENE 18:31:41 71° ENE
Cosmos 44 3.4 18:26:35 10° NW 18:31:55 90° NE 18:32:40 67° SSE
Meteor 1-14 Rocket 4.2 18:26:03 10° N 18:32:01 81° E 18:38:00 10° SSE
COSMO-SKYMED 1 3.9 18:29:20 13° N 18:32:50 38° WNW 18:36:52 10° SW
Okean-O 3.0 18:28:31 10° S 18:32:54 64° WSW 18:37:20 10° NNW
CZ-2C R/B 3.2 18:29:53 10° S 18:35:03 69° WSW 18:40:00 10° NNW
ARGOS 4.2 18:38:30 33° N 18:38:30 33° N 18:41:29 10° N
Cosmos 1867 4.2 18:30:53 10° SW 18:36:10 51° NW 18:37:58 36° N
SL-16 R/B 2.5 18:30:51 10° SW 18:36:28 63° WNW 18:38:47 35° N
USA 215 3.7 18:35:12 35° NNE 18:37:46 54° NNW 18:44:05 10° WSW
Helios 1A Rocket 3.9 18:43:48 41° WSW 18:44:20 44° W 18:48:12 10° NNW
Cosmos 1782 4.4 18:41:07 10° SSW 18:43:16 29° SW 18:43:16 29° SW
ISS -0.9 18:45:32 10° WNW 18:46:31 16° WNW 18:46:31 16° WNW
Lacrosse 5 rocket 3.9 19:02:57 10° WSW 19:03:47 16° WSW 19:03:47 16° WSW
USA 267 3.6 19:09:07 50° S 19:10:20 57° SW 19:16:47 10° NW
CZ-4 R/B 3.9 19:14:25 18° WNW 19:14:25 18° WNW 19:16:17 10° NW
ATLAS CENTAUR R/B 4.2 19:07:02 10° NW 19:25:06 64° WSW 19:27:27 49° S
H-2A R/B 3.7 19:33:04 32° W 19:33:04 32° W 19:37:43 10° NNW
Cosmos 2369 Rocket 4.1 19:41:43 10° NW 19:43:59 24° NW 19:43:59 24° NW
